Location: Newark
(7.0858°N, 171.3717°E)
Time: 19:44:09
(UTC+00:00)

Tiros 1 - Pass Details

Date: 05 December 2020
Orbit: 630 x 663 km, 48.4° (Epoch: 18 January)

Event Time Altitude Azimuth Distance (km) Brightness Sun altitude
Rises 09:52:57 0° 320° (NW) 2,947 - -50.3°
Reaches altitude 10° 09:55:17 10° 320° (NW) 2,033 - -50.8°
Maximum altitude 09:59:58 86° 229° (SW) 643 - -51.8°
Drops below altitude 10° 10:04:37 10° 142° (SE) 2,015 - -52.8°
Sets 10:06:56 0° 142° (SE) 2,919 - -53.3°
